Time,TemperatureF,DewpointF,PressureIn,WindDirection,WindDirectionDegrees,WindSpeedMPH,WindSpeedGustMPH,Humidity,HourlyPrecipIn,Conditions,Clouds,dailyrainin,SoftwareType,DateUTC
2013-05-18 00:03:00,43.0,39.0,30.37,ESE,108,0.0,0.0,85,0.00,,,0.00,,2013-05-18 04:03:00,
2013-05-18 00:12:00,43.0,39.0,30.37,ESE,108,0.0,0.0,85,0.00,,,0.00,,2013-05-18 04:12:00,
2013-05-18 00:23:00,42.0,38.0,30.37,ESE,107,0.0,0.0,85,0.00,,,0.00,,2013-05-18 04:23:00,
2013-05-18 00:33:00,42.0,38.0,30.38,ESE,108,0.0,1.0,86,0.00,,,0.00,,2013-05-18 04:33:00,
2013-05-18 00:43:00,42.0,38.0,30.38,ESE,108,0.0,1.0,86,0.00,,,0.00,,2013-05-18 04:43:00,
2013-05-18 00:52:00,41.0,37.0,30.38,ESE,108,0.0,0.0,87,0.00,,,0.00,,2013-05-18 04:52:00,
2013-05-18 01:02:00,41.0,38.0,30.37,ESE,107,0.0,0.0,88,0.00,,,0.00,,2013-05-18 05:02:00,
2013-05-18 01:13:00,41.0,38.0,30.37,ESE,107,0.0,0.0,88,0.00,,,0.00,,2013-05-18 05:13:00,
2013-05-18 01:22:00,41.0,37.0,30.38,ESE,107,0.0,0.0,87,0.00,,,0.00,,2013-05-18 05:22:00,
2013-05-18 01:32:00,40.0,37.0,30.38,ESE,107,0.0,0.0,88,0.00,,,0.00,,2013-05-18 05:32:00,
2013-05-18 01:42:00,40.0,37.0,30.38,ESE,107,0.0,0.0,88,0.00,,,0.00,,2013-05-18 05:42:00,
2013-05-18 01:52:00,39.0,36.0,30.39,ESE,108,0.0,0.0,89,0.00,,,0.00,,2013-05-18 05:52:00,
2013-05-18 02:02:00,39.0,36.0,30.38,ESE,108,0.0,0.0,90,0.00,,,0.00,,2013-05-18 06:02:00,
2013-05-18 02:11:00,39.0,36.0,30.38,ESE,108,0.0,0.0,90,0.00,,,0.00,,2013-05-18 06:11:00,
2013-05-18 02:22:00,39.0,37.0,30.39,ESE,108,0.0,0.0,92,0.00,,,0.00,,2013-05-18 06:22:00,
2013-05-18 02:32:00,39.0,37.0,30.39,ESE,107,0.0,0.0,91,0.00,,,0.00,,2013-05-18 06:32:00,
2013-05-18 02:42:00,39.0,37.0,30.39,ESE,107,0.0,0.0,91,0.00,,,0.00,,2013-05-18 06:42:00,
2013-05-18 02:52:00,38.0,36.0,30.38,ESE,108,0.0,0.0,91,0.00,,,0.00,,2013-05-18 06:52:00,
2013-05-18 03:01:00,38.0,36.0,30.39,ESE,108,0.0,0.0,92,0.00,,,0.00,,2013-05-18 07:01:00,
2013-05-18 03:12:00,38.0,36.0,30.39,ESE,108,0.0,0.0,92,0.00,,,0.00,,2013-05-18 07:12:00,
2013-05-18 03:21:00,38.0,36.0,30.39,ESE,107,0.0,0.0,92,0.00,,,0.00,,2013-05-18 07:21:00,
2013-05-18 03:32:00,38.0,36.0,30.39,ESE,108,0.0,0.0,93,0.00,,,0.00,,2013-05-18 07:32:00,
2013-05-18 03:42:00,38.0,36.0,30.39,ESE,108,0.0,0.0,93,0.00,,,0.00,,2013-05-18 07:42:00,
2013-05-18 03:52:00,38.0,36.0,30.40,ESE,107,0.0,0.0,93,0.00,,,0.00,,2013-05-18 07:52:00,
2013-05-18 04:02:00,37.0,35.0,30.40,ESE,107,0.0,0.0,93,0.00,,,0.00,,2013-05-18 08:02:00,
2013-05-18 04:11:00,37.0,35.0,30.40,ESE,107,0.0,0.0,93,0.00,,,0.00,,2013-05-18 08:11:00,
2013-05-18 04:21:00,37.0,35.0,30.40,ESE,108,0.0,0.0,93,0.00,,,0.00,,2013-05-18 08:21:00,
2013-05-18 04:32:00,37.0,35.0,30.40,ESE,107,0.0,0.0,93,0.00,,,0.00,,2013-05-18 08:32:00,
2013-05-18 04:42:00,37.0,35.0,30.40,ESE,107,0.0,0.0,93,0.00,,,0.00,,2013-05-18 08:42:00,
2013-05-18 04:52:00,36.0,34.0,30.40,ESE,107,0.0,0.0,93,0.00,,,0.00,,2013-05-18 08:52:00,
2013-05-18 05:02:00,36.0,34.0,30.40,ESE,107,0.0,0.0,93,0.00,,,0.00,,2013-05-18 09:02:00,
2013-05-18 05:11:00,36.0,34.0,30.40,ESE,107,0.0,0.0,93,0.00,,,0.00,,2013-05-18 09:11:00,
2013-05-18 05:22:00,36.0,34.0,30.41,ESE,108,0.0,0.0,93,0.00,,,0.00,,2013-05-18 09:22:00,
2013-05-18 05:33:00,36.0,34.0,30.42,ESE,107,0.0,0.0,93,0.00,,,0.00,,2013-05-18 09:33:00,
2013-05-18 05:43:00,36.0,34.0,30.42,ESE,107,0.0,0.0,93,0.00,,,0.00,,2013-05-18 09:43:00,
2013-05-18 05:53:00,36.0,34.0,30.42,ESE,108,0.0,0.0,94,0.00,,,0.00,,2013-05-18 09:53:00,
2013-05-18 06:03:00,35.0,33.0,30.43,ESE,108,0.0,0.0,94,0.00,,,0.00,,2013-05-18 10:03:00,
2013-05-18 06:12:00,35.0,33.0,30.43,ESE,108,0.0,0.0,94,0.00,,,0.00,,2013-05-18 10:12:00,
2013-05-18 06:23:00,35.0,33.0,30.43,ESE,107,0.0,0.0,94,0.00,,,0.00,,2013-05-18 10:23:00,
2013-05-18 06:33:00,36.0,34.0,30.44,ESE,107,0.0,0.0,94,0.00,,,0.00,,2013-05-18 10:33:00,
2013-05-18 06:42:00,36.0,34.0,30.44,ESE,107,0.0,0.0,94,0.00,,,0.00,,2013-05-18 10:42:00,
2013-05-18 06:52:00,36.0,34.0,30.45,ESE,107,0.0,0.0,94,0.00,,,0.00,,2013-05-18 10:52:00,
2013-05-18 07:03:00,37.0,35.0,30.45,ESE,107,0.0,0.0,94,0.00,,,0.00,,2013-05-18 11:03:00,
2013-05-18 07:12:00,37.0,35.0,30.45,ESE,107,0.0,0.0,94,0.00,,,0.00,,2013-05-18 11:12:00,
2013-05-18 07:22:00,38.0,37.0,30.45,ESE,107,0.0,0.0,95,0.00,,,0.00,,2013-05-18 11:22:00,
2013-05-18 07:33:00,41.0,39.0,30.46,ESE,107,0.0,0.0,94,0.00,,,0.00,,2013-05-18 11:33:00,
2013-05-18 07:42:00,41.0,39.0,30.46,ESE,107,0.0,0.0,94,0.00,,,0.00,,2013-05-18 11:42:00,
2013-05-18 07:52:00,43.0,40.0,30.46,ESE,107,0.0,0.0,90,0.00,,,0.00,,2013-05-18 11:52:00,
2013-05-18 08:02:00,46.0,42.0,30.46,ESE,110,0.0,1.0,85,0.00,,,0.00,,2013-05-18 12:02:00,
2013-05-18 08:12:00,46.0,42.0,30.46,ESE,110,0.0,1.0,85,0.00,,,0.00,,2013-05-18 12:12:00,
2013-05-18 08:23:00,49.0,42.0,30.46,South,174,0.0,0.0,78,0.00,,,0.00,,2013-05-18 12:23:00,
2013-05-18 08:33:00,50.0,42.0,30.46,WSW,240,0.0,0.0,74,0.00,,,0.00,,2013-05-18 12:33:00,
2013-05-18 08:42:00,50.0,42.0,30.46,WSW,240,0.0,0.0,74,0.00,,,0.00,,2013-05-18 12:42:00,
2013-05-18 08:52:00,52.0,43.0,30.46,WSW,250,0.0,0.0,72,0.00,,,0.00,,2013-05-18 12:52:00,
2013-05-18 09:01:00,54.0,44.0,30.46,WSW,257,0.0,0.0,69,0.00,,,0.00,,2013-05-18 13:01:00,
2013-05-18 09:11:00,54.0,44.0,30.46,WSW,257,0.0,0.0,69,0.00,,,0.00,,2013-05-18 13:11:00,
2013-05-18 09:21:00,57.0,44.0,30.47,West,262,0.0,0.0,62,0.00,,,0.00,,2013-05-18 13:21:00,
2013-05-18 09:33:00,58.0,43.0,30.46,West,267,0.0,0.0,57,0.00,,,0.00,,2013-05-18 13:33:00,
2013-05-18 09:43:00,58.0,43.0,30.46,West,267,0.0,0.0,57,0.00,,,0.00,,2013-05-18 13:43:00,
2013-05-18 09:52:00,59.0,43.0,30.46,WSW,255,0.0,0.0,55,0.00,,,0.00,,2013-05-18 13:52:00,
2013-05-18 10:04:00,60.0,44.0,30.46,SW,214,0.0,0.0,55,0.00,,,0.00,,2013-05-18 14:04:00,
2013-05-18 10:12:00,60.0,44.0,30.46,SW,214,0.0,0.0,55,0.00,,,0.00,,2013-05-18 14:12:00,
2013-05-18 10:22:00,62.0,44.0,30.46,WNW,295,0.0,0.0,52,0.00,,,0.00,,2013-05-18 14:22:00,
2013-05-18 10:33:00,64.0,44.0,30.45,SSE,167,0.0,0.0,48,0.00,,,0.00,,2013-05-18 14:33:00,
2013-05-18 10:42:00,64.0,44.0,30.45,SSE,167,0.0,0.0,48,0.00,,,0.00,,2013-05-18 14:42:00,
2013-05-18 10:54:00,65.0,40.0,30.45,WSW,252,0.0,0.0,40,0.00,,,0.00,,2013-05-18 14:54:00,
2013-05-18 11:03:00,66.0,40.0,30.45,WSW,243,1.0,3.0,39,0.00,,,0.00,,2013-05-18 15:03:00,
2013-05-18 11:13:00,66.0,40.0,30.45,WSW,243,1.0,3.0,39,0.00,,,0.00,,2013-05-18 15:13:00,
2013-05-18 11:23:00,68.0,39.0,30.45,ENE,71,1.0,2.0,35,0.00,,,0.00,,2013-05-18 15:23:00,
2013-05-18 11:33:00,69.0,34.0,30.45,West,264,2.0,3.0,27,0.00,,,0.00,,2013-05-18 15:33:00,
2013-05-18 11:43:00,69.0,34.0,30.45,West,264,2.0,3.0,27,0.00,,,0.00,,2013-05-18 15:43:00,
2013-05-18 11:53:00,69.0,35.0,30.44,WSW,248,0.0,2.0,28,0.00,,,0.00,,2013-05-18 15:53:00,
2013-05-18 12:03:00,69.0,35.0,30.43,SSE,159,2.0,5.0,28,0.00,,,0.00,,2013-05-18 16:03:00,
2013-05-18 12:13:00,69.0,35.0,30.43,SSE,159,2.0,5.0,28,0.00,,,0.00,,2013-05-18 16:13:00,
2013-05-18 12:22:00,70.0,36.0,30.42,WSW,238,1.0,3.0,29,0.00,,,0.00,,2013-05-18 16:22:00,
2013-05-18 12:33:00,70.0,37.0,30.42,West,266,1.0,5.0,30,0.00,,,0.00,,2013-05-18 16:33:00,
2013-05-18 12:42:00,70.0,37.0,30.42,West,266,1.0,5.0,30,0.00,,,0.00,,2013-05-18 16:42:00,
2013-05-18 12:52:00,68.0,38.0,30.42,WSW,243,1.0,2.0,33,0.00,,,0.00,,2013-05-18 16:52:00,
2013-05-18 13:02:00,68.0,37.0,30.42,SW,229,0.0,4.0,32,0.00,,,0.00,,2013-05-18 17:02:00,
2013-05-18 13:12:00,68.0,37.0,30.42,SW,229,0.0,4.0,32,0.00,,,0.00,,2013-05-18 17:12:00,
2013-05-18 13:22:00,70.0,36.0,30.42,East,90,1.0,4.0,29,0.00,,,0.00,,2013-05-18 17:22:00,
2013-05-18 13:33:00,68.0,36.0,30.41,West,262,0.0,3.0,31,0.00,,,0.00,,2013-05-18 17:33:00,
2013-05-18 13:42:00,68.0,36.0,30.41,West,262,0.0,3.0,31,0.00,,,0.00,,2013-05-18 17:42:00,
2013-05-18 13:52:00,68.0,39.0,30.40,SSE,163,1.0,2.0,35,0.00,,,0.00,,2013-05-18 17:52:00,
2013-05-18 14:01:00,69.0,38.0,30.40,WNW,290,0.0,3.0,32,0.00,,,0.00,,2013-05-18 18:01:00,
2013-05-18 14:12:00,69.0,38.0,30.40,WNW,290,0.0,3.0,32,0.00,,,0.00,,2013-05-18 18:12:00,
2013-05-18 14:21:00,69.0,38.0,30.40,WNW,285,0.0,4.0,32,0.00,,,0.00,,2013-05-18 18:21:00,
2013-05-18 14:32:00,69.0,39.0,30.39,NE,44,0.0,3.0,33,0.00,,,0.00,,2013-05-18 18:32:00,
2013-05-18 14:42:00,69.0,39.0,30.39,NE,44,0.0,3.0,33,0.00,,,0.00,,2013-05-18 18:42:00,
2013-05-18 14:52:00,70.0,38.0,30.38,West,273,0.0,3.0,31,0.00,,,0.00,,2013-05-18 18:52:00,
2013-05-18 15:02:00,69.0,39.0,30.38,SW,229,0.0,1.0,33,0.00,,,0.00,,2013-05-18 19:02:00,
2013-05-18 15:12:00,69.0,39.0,30.38,SW,229,0.0,1.0,33,0.00,,,0.00,,2013-05-18 19:12:00,
2013-05-18 15:22:00,71.0,40.0,30.38,WSW,249,1.0,2.0,32,0.00,,,0.00,,2013-05-18 19:22:00,
2013-05-18 15:32:00,70.0,40.0,30.37,ENE,69,0.0,3.0,34,0.00,,,0.00,,2013-05-18 19:32:00,
2013-05-18 15:42:00,70.0,40.0,30.37,ENE,69,0.0,3.0,34,0.00,,,0.00,,2013-05-18 19:42:00,
2013-05-18 15:52:00,69.0,38.0,30.37,SSE,150,1.0,2.0,32,0.00,,,0.00,,2013-05-18 19:52:00,
2013-05-18 16:02:00,70.0,39.0,30.37,West,259,1.0,3.0,32,0.00,,,0.00,,2013-05-18 20:02:00,
2013-05-18 16:11:00,70.0,39.0,30.37,West,259,1.0,3.0,32,0.00,,,0.00,,2013-05-18 20:11:00,
2013-05-18 16:22:00,70.0,38.0,30.37,SE,128,1.0,4.0,31,0.00,,,0.00,,2013-05-18 20:22:00,
2013-05-18 16:32:00,70.0,40.0,30.36,WSW,252,0.0,4.0,33,0.00,,,0.00,,2013-05-18 20:32:00,
2013-05-18 16:42:00,70.0,40.0,30.36,WSW,252,0.0,4.0,33,0.00,,,0.00,,2013-05-18 20:42:00,
2013-05-18 16:52:00,69.0,39.0,30.36,SE,136,0.0,2.0,34,0.00,,,0.00,,2013-05-18 20:52:00,
2013-05-18 17:01:00,69.0,39.0,30.36,SSW,212,0.0,2.0,34,0.00,,,0.00,,2013-05-18 21:01:00,
2013-05-18 17:12:00,69.0,39.0,30.36,SSW,212,0.0,2.0,34,0.00,,,0.00,,2013-05-18 21:12:00,
2013-05-18 17:21:00,69.0,39.0,30.36,West,262,0.0,1.0,34,0.00,,,0.00,,2013-05-18 21:21:00,
2013-05-18 17:33:00,69.0,40.0,30.35,SW,214,0.0,1.0,35,0.00,,,0.00,,2013-05-18 21:33:00,
2013-05-18 17:43:00,69.0,40.0,30.35,SW,214,0.0,1.0,35,0.00,,,0.00,,2013-05-18 21:43:00,
2013-05-18 17:53:00,69.0,41.0,30.36,WSW,252,1.0,4.0,36,0.00,,,0.00,,2013-05-18 21:53:00,
2013-05-18 18:03:00,68.0,41.0,30.35,WSW,254,0.0,1.0,37,0.00,,,0.00,,2013-05-18 22:03:00,
2013-05-18 18:12:00,68.0,41.0,30.35,WSW,254,0.0,1.0,37,0.00,,,0.00,,2013-05-18 22:12:00,
2013-05-18 18:23:00,68.0,41.0,30.36,SW,231,0.0,2.0,38,0.00,,,0.00,,2013-05-18 22:23:00,
2013-05-18 18:33:00,67.0,41.0,30.36,ESE,117,0.0,1.0,39,0.00,,,0.00,,2013-05-18 22:33:00,
2013-05-18 18:42:00,67.0,41.0,30.36,ENE,60,0.0,1.0,39,0.00,,,0.00,,2013-05-18 22:42:00,
2013-05-18 18:53:00,67.0,41.0,30.36,ENE,60,0.0,1.0,39,0.00,,,0.00,,2013-05-18 22:53:00,
2013-05-18 19:01:00,66.0,42.0,30.36,WSW,256,0.0,2.0,41,0.00,,,0.00,,2013-05-18 23:01:00,
2013-05-18 19:12:00,66.0,42.0,30.36,WSW,256,0.0,2.0,41,0.00,,,0.00,,2013-05-18 23:12:00,
2013-05-18 19:22:00,66.0,43.0,30.37,SW,231,0.0,1.0,43,0.00,,,0.00,,2013-05-18 23:22:00,
2013-05-18 19:32:00,65.0,44.0,30.37,SW,231,0.0,1.0,47,0.00,,,0.00,,2013-05-18 23:32:00,
2013-05-18 19:42:00,65.0,44.0,30.37,SW,231,0.0,1.0,47,0.00,,,0.00,,2013-05-18 23:42:00,
2013-05-18 19:53:00,63.0,44.0,30.37,SW,231,0.0,0.0,49,0.00,,,0.00,,2013-05-18 23:53:00,
2013-05-18 20:01:00,62.0,46.0,30.37,SW,231,0.0,0.0,55,0.00,,,0.00,,2013-05-19 00:01:00,
2013-05-18 20:12:00,62.0,46.0,30.37,SW,231,0.0,0.0,55,0.00,,,0.00,,2013-05-19 00:12:00,
2013-05-18 20:21:00,60.0,46.0,30.37,SW,231,0.0,1.0,59,0.00,,,0.00,,2013-05-19 00:21:00,
2013-05-18 20:32:00,59.0,46.0,30.37,WSW,256,0.0,3.0,61,0.00,,,0.00,,2013-05-19 00:32:00,
2013-05-18 20:41:00,59.0,46.0,30.37,WSW,256,0.0,3.0,61,0.00,,,0.00,,2013-05-19 00:41:00,
2013-05-18 20:52:00,59.0,46.0,30.38,SSW,210,0.0,1.0,61,0.00,,,0.00,,2013-05-19 00:52:00,
2013-05-18 21:01:00,59.0,46.0,30.38,SE,139,0.0,1.0,63,0.00,,,0.00,,2013-05-19 01:01:00,
2013-05-18 21:11:00,59.0,46.0,30.38,SE,139,0.0,1.0,63,0.00,,,0.00,,2013-05-19 01:11:00,
2013-05-18 21:22:00,59.0,47.0,30.39,ESE,115,0.0,1.0,65,0.00,,,0.00,,2013-05-19 01:22:00,
2013-05-18 21:32:00,58.0,47.0,30.39,East,80,0.0,1.0,66,0.00,,,0.00,,2013-05-19 01:32:00,
2013-05-18 21:42:00,58.0,47.0,30.39,East,80,0.0,1.0,66,0.00,,,0.00,,2013-05-19 01:42:00,
2013-05-18 21:52:00,58.0,48.0,30.40,NE,48,0.0,1.0,69,0.00,,,0.00,,2013-05-19 01:52:00,
2013-05-18 22:01:00,56.0,47.0,30.40,NE,48,0.0,1.0,71,0.00,,,0.00,,2013-05-19 02:01:00,
2013-05-18 22:11:00,56.0,47.0,30.40,NE,48,0.0,1.0,71,0.00,,,0.00,,2013-05-19 02:11:00,
2013-05-18 22:22:00,56.0,47.0,30.40,SSE,156,0.0,1.0,72,0.00,,,0.00,,2013-05-19 02:22:00,
2013-05-18 22:32:00,56.0,47.0,30.40,SE,128,0.0,1.0,72,0.00,,,0.00,,2013-05-19 02:32:00,
2013-05-18 22:42:00,56.0,47.0,30.40,SE,128,0.0,1.0,72,0.00,,,0.00,,2013-05-19 02:42:00,
2013-05-18 22:52:00,56.0,47.0,30.40,SE,141,0.0,1.0,71,0.00,,,0.00,,2013-05-19 02:52:00,
2013-05-18 23:01:00,55.0,47.0,30.40,NE,37,0.0,1.0,75,0.00,,,0.00,,2013-05-19 03:01:00,
2013-05-18 23:11:00,55.0,47.0,30.40,NE,37,0.0,1.0,75,0.00,,,0.00,,2013-05-19 03:11:00,
2013-05-18 23:22:00,53.0,46.0,30.41,NE,37,0.0,1.0,77,0.00,,,0.00,,2013-05-19 03:22:00,
2013-05-18 23:33:00,52.0,46.0,30.41,NE,37,0.0,2.0,79,0.00,,,0.00,,2013-05-19 03:33:00,
2013-05-18 23:42:00,52.0,46.0,30.41,NE,37,0.0,2.0,79,0.00,,,0.00,,2013-05-19 03:42:00,
2013-05-18 23:53:00,51.0,45.0,30.41,NE,37,0.0,1.0,81,0.00,,,0.00,,2013-05-19 03:53:00,